Location: Strohbehn Observatory
(42.4649°N, 93.8239°W)
Time: 23:07:25
(UTC-06:00)

SL-16 R/B - Visible Passes

Search period start: 22 February 2017 00:00
Search period end: 04 March 2017 00:00
Orbit: 843 x 846 km, 71.0° (Epoch: 21 February)

Date Brightness Start Highest point End Pass type
(mag) Time Alt. Az. Time Alt. Az. Time Alt. Az.
22 Feb 2.2 18:25:27 10° NNW 18:31:09 71° ENE 18:36:48 10° SSE visible
22 Feb 5.0 20:11:09 10° WNW 20:14:34 17° W 20:18:00 10° SW visible
23 Feb 5.0 19:56:48 10° WNW 20:00:21 17° W 20:03:55 10° SW visible
24 Feb 5.0 19:42:26 10° WNW 19:46:08 18° W 19:49:49 10° SW visible
25 Feb 5.0 19:28:06 10° WNW 19:31:54 19° W 19:35:42 10° SW visible
26 Feb 5.1 19:13:45 10° NW 19:17:41 19° W 19:21:35 10° SW visible
27 Feb 5.1 18:59:25 10° NW 19:03:27 20° W 19:07:28 10° SW visible
28 Feb 5.1 18:45:05 10° NW 18:49:14 21° W 18:53:20 10° SSW visible
01 Mar 5.6 06:11:35 10° SE 06:14:24 14° E 06:17:14 10° ENE visible
01 Mar 5.1 18:30:46 10° NW 18:34:59 22° W 18:39:12 10° SSW visible
02 Mar 5.5 05:57:33 10° SE 06:00:10 13° E 06:02:49 10° ENE visible
03 Mar 5.5 05:43:32 10° ESE 05:45:57 13° E 05:48:23 10° ENE visible
